Weather Roundup
Issued by NWS Springfield, MO

Home | Current Version | Previous Version | Text Only | Print | Product List | Glossary On
Versions: 1 2 3 4 5 6 7 8 9 10 11 12 13 14 15 16 17 18 19 20 21 22 23 24 25 26 27 28 29 30 31 32 33 34 35 36 37 38 39 40 41 42 43 44 45 46 47 48 49 50
000
NZUS99 KSGF 231559
HRRSGF

HOURLY WEATHER
NATIONAL WEATHER SERVICE SPRINGFIELD MO
1100 AM CDT TUE SEP 23 2014

......SGF CWA......

CITY           SKY/WX    TMP DP  RH WIND       PRES   REMARKS
SPRINGFIELD    MOSUNNY   65  48  54 S12       30.30S
JOPLIN         SUNNY     69  54  58 S9        30.28S
WEST PLAINS    SUNNY     65  46  50 VRB6      30.33S
ROLLA          SUNNY     65  47  52 S6        30.32R
OSAGE BEACH    SUNNY     66  50  55 S9        30.32S
BRANSON        MOSUNNY   66  50  55 E9        30.32R

......SURROUNDING SGF CWA......

CITY           SKY/WX    TMP DP  RH WIND       PRES   REMARKS
CHANUTE        MOSUNNY   69  55  60 S14       30.26S
PARSONS        MOSUNNY   70  55  59 S9G17     30.27S
COFFEYVILLE    MOSUNNY   70  56  61 S9        30.25F
EMPORIA        PTSUNNY   66  56  70 S17       30.21F
GROVE OK       SUNNY     72  54  53 SE6       30.28S
SILOAM SPRINGS SUNNY     68  48  49 S8        30.30S
HARRISON AR    SUNNY     65  50  58 SE9       30.30S
NEAR YELLVILLE SUNNY     63  48  59 CALM      30.31S

......KANSAS AND MISSOURI......

CITY           SKY/WX    TMP DP  RH WIND       PRES   REMARKS
KANSAS CTY INT CLOUDY    70  56  61 S14       30.24F
DOWNTOWN KC    CLOUDY    69  53  56 S10       30.24F
COLUMBIA       SUNNY     66  51  58 S9        30.33S
SEDALIA        MOSUNNY   69  51  52 S10       30.31S
ST JOSEPH      CLOUDY    68  54  60 S14       30.23S
ST LOUIS       MOSUNNY   69  48  47 S6        30.34S
SPIRIT OF STL  MOSUNNY   67  51  56 CALM      30.33S
KIRKSVILLE     MOSUNNY   66  51  58 S12       30.32S
WICHITA        PTSUNNY   73  51  46 S23       30.17F
TOPEKA         PTSUNNY   67  56  67 SE7       30.21F
OLATHE         PTSUNNY   69  55  60 S13       30.24F

......TENNESSEE......

CITY           SKY/WX    TMP DP  RH WIND       PRES   REMARKS
MEMPHIS        MOSUNNY   71  45  39 E12       30.25S
NASHVILLE      MOSUNNY   69  50  50 E6        30.29S

......ARKANSAS.......

CITY           SKY/WX    TMP DP  RH WIND       PRES   REMARKS
FAYETTEVILLE   SUNNY     67  49  52 VRB5      30.28F
FT SMITH       MOSUNNY   68  53  58 NE8       30.27R
LITTLE ROCK    MOSUNNY   70  48  45 E5        30.27S

......OKLAHOMA.......

CITY           SKY/WX    TMP DP  RH WIND       PRES   REMARKS
TULSA          PTSUNNY   71  55  56 S13       30.25S
PONCA CITY     SUNNY     72  54  53 S13G22    30.20F
MCALESTER      MOSUNNY   71  52  50 SE5       30.25S
OKLAHOMA CITY  MOSUNNY   73  52  47 S20       30.22S

......IOWA............

CITY           SKY/WX    TMP DP  RH WIND       PRES   REMARKS
DES MOINES     CLOUDY    65  52  62 SE9       30.26F
QUAD CITIES    SUNNY     68  48  48 SW8       30.34R

......ILLINOIS........

CITY           SKY/WX    TMP DP  RH WIND       PRES   REMARKS
QUINCY         SUNNY     67  48  50 S12       30.33R
CHICAGO        SUNNY     62  45  53 SW7       30.34S




USA.gov is the U.S. government's official web portal to all federal, state and local government web resources and services.